User: anonymous   Login
Location: Columbia
(38.9520°N, 92.3340°W)
Time: 16:03:11
(UTC-05:00)
Language:

Cosmos 158 Rocket - Orbit

View from above orbital plane
View from above orbital plane
View from above satellite
View from above satellite

Ground track
Ground track

The orbit data is extracted from the following two-line orbital elements,

1 02802U 67045B   15108.42068879  .00000406  00000-0  12488-3 0  9999
2 02802 074.0129 198.5373 0065628 082.8470 278.0142 14.43424975514871
Epoch (UTC): 18 April 2015 10:05:47
Eccentricity: 0.0065628
inclination: 74.0129°
perigee height: 700 km
apogee height: 794 km
right ascension of ascending node: 198.5373°
argument of perigee: 82.8470°
revolutions per day: 14.43424975
mean anomaly at epoch: 278.0142°
orbit number at epoch: 51487

The dashed part of the orbit path shows where the satellite is in the earth's shadow,  

DLR